Tracking 18984 objects as of 23-Feb-2018
HD Live streaming from Space Station
objects crossing your sky now

FENGYUN 1C DEB

Track FENGYUN 1C DEB now!
10-day predictions


NORAD ID: 37012
Int'l Code: 1999-025ECU
Perigee: 791.3 km
Apogee: 1,110.1 km
Inclination: 98.6 °
Period: 103.9 minutes
Semi major axis: 7321 km
RCS: 0.0094 m2 (small)
Launch date: May 10, 1999
Source: People's Republic of China (PRC)
Launch site: Taiyaun Space Center, China (TSC)

Note: This is SATELLITE DEBRIS
aabbcc
Your satellite tracking list
Your tracking list is empty




NASA's NSSDC Master Catalog

Two Line Element Set (TLE):
1 37012U 99025ECU 18053.35430138  .00000488  00000-0  38325-3 0  9996
2 37012  98.5721  95.2061 0217751 260.2846  97.3657 13.85747190509119
Source of the keplerian elements: AFSPC